Stündliche Wetter Abakany

Heute, 18 Juni, Freitag

Zeit Temperatur Niederschläge Wind Luftdruck Luftfeuchtigkeit
00:00 +16°C° 0 mm 2 m/S 755 mmHg 76%
01:00 +15°C° 0 mm 2 m/S 755 mmHg 78%
02:00 +15°C° 0 mm 2 m/S 755 mmHg 80%
03:00 +15°C° 0 mm 2 m/S 755 mmHg 80%
04:00 +15°C° 0 mm 1 m/S 755 mmHg 80%
05:00 +16°C° 0 mm 1 m/S 755 mmHg 81%
06:00 +18°C° 0 mm 2 m/S 755 mmHg 73%
07:00 +20°C° 0 mm 2 m/S 755 mmHg 64%
08:00 +23°C° 0 mm 2 m/S 755 mmHg 56%
09:00 +25°C° 0 mm 2 m/S 755 mmHg 51%
10:00 +26°C° 0 mm 2 m/S 755 mmHg 46%
11:00 +28°C° 0 mm 3 m/S 755 mmHg 40%
12:00 +28°C° 0 mm 3 m/S 755 mmHg 39%
13:00 +29°C° 0 mm 3 m/S 754 mmHg 37%
14:00 +30°C° 0 mm 3 m/S 754 mmHg 35%
15:00 +29°C° 0 mm 3 m/S 754 mmHg 37%
16:00 +29°C° 0 mm 3 m/S 754 mmHg 39%
17:00 +29°C° 0 mm 3 m/S 753 mmHg 42%
18:00 +27°C° 0 mm 2 m/S 753 mmHg 53%
19:00 +25°C° 0 mm 2 m/S 754 mmHg 63%
20:00 +21°C° 0 mm 2 m/S 754 mmHg 74%
21:00 +20°C° 0 mm 2 m/S 754 mmHg 78%
22:00 +19°C° 0 mm 2 m/S 754 mmHg 82%
23:00 +18°C° 0 mm 2 m/S 754 mmHg 86%

Morgen, 19 Juni, Samstag

Zeit Temperatur Niederschläge Wind Luftdruck Luftfeuchtigkeit
00:00 +17°C° 0 mm 2 m/S 754 mmHg 89%
01:00 +16°C° 0 mm 2 m/S 754 mmHg 91%
02:00 +16°C° 0 mm 2 m/S 754 mmHg 94%
03:00 +16°C° 0 mm 2 m/S 754 mmHg 92%
04:00 +17°C° 0 mm 2 m/S 754 mmHg 90%
05:00 +17°C° 0 mm 2 m/S 754 mmHg 89%
06:00 +19°C° 0 mm 2 m/S 754 mmHg 80%
07:00 +21°C° 0 mm 2 m/S 754 mmHg 71%
08:00 +24°C° 0 mm 2 m/S 754 mmHg 62%
09:00 +26°C° 0 mm 2 m/S 754 mmHg 56%
10:00 +27°C° 0 mm 2 m/S 754 mmHg 50%
11:00 +28°C° 0 mm 2 m/S 754 mmHg 44%
12:00 +29°C° 0 mm 2 m/S 753 mmHg 41%
13:00 +30°C° 0 mm 3 m/S 753 mmHg 39%
14:00 +30°C° 0 mm 3 m/S 753 mmHg 36%
15:00 +30°C° 0 mm 3 m/S 753 mmHg 38%
16:00 +30°C° 0 mm 2 m/S 752 mmHg 40%
17:00 +30°C° 0 mm 2 m/S 752 mmHg 42%
18:00 +28°C° 0 mm 2 m/S 752 mmHg 53%
19:00 +26°C° 0 mm 2 m/S 752 mmHg 63%
20:00 +24°C° 0 mm 2 m/S 752 mmHg 74%
21:00 +21°C° 0 mm 2 m/S 752 mmHg 78%
22:00 +20°C° 0 mm 2 m/S 752 mmHg 83%
23:00 +19°C° 0 mm 2 m/S 752 mmHg 87%

übermorgen, 20 Juni, Sonntag

Zeit Temperatur Niederschläge Wind Luftdruck Luftfeuchtigkeit
00:00 +18°C° 0 mm 2 m/S 752 mmHg 90%
01:00 +18°C° 0 mm 2 m/S 753 mmHg 92%
02:00 +17°C° 0 mm 2 m/S 753 mmHg 95%
03:00 +18°C° 0 mm 2 m/S 752 mmHg 93%
04:00 +18°C° 0 mm 2 m/S 752 mmHg 92%
05:00 +19°C° 0 mm 2 m/S 752 mmHg 90%
06:00 +21°C° 0 mm 2 m/S 752 mmHg 81%
07:00 +23°C° 0 mm 2 m/S 752 mmHg 73%
08:00 +25°C° 0 mm 2 m/S 752 mmHg 64%
09:00 +27°C° 0 mm 3 m/S 752 mmHg 59%
10:00 +28°C° 0 mm 3 m/S 752 mmHg 53%
11:00 +29°C° 0 mm 3 m/S 752 mmHg 47%
12:00 +30°C° 0 mm 3 m/S 751 mmHg 45%
13:00 +31°C° 0 mm 3 m/S 751 mmHg 42%
14:00 +31°C° 0 mm 3 m/S 751 mmHg 39%
15:00 +31°C° 0 mm 3 m/S 751 mmHg 40%
16:00 +31°C° 0 mm 2 m/S 750 mmHg 42%
17:00 +31°C° 0 mm 2 m/S 750 mmHg 43%
18:00 +29°C° 0 mm 2 m/S 750 mmHg 53%
19:00 +27°C° 0 mm 2 m/S 750 mmHg 62%
20:00 +25°C° 0 mm 2 m/S 750 mmHg 72%
21:00 +24°C° 0 mm 2 m/S 750 mmHg 78%
22:00 +23°C° 0 mm 2 m/S 750 mmHg 84%
23:00 +20°C° 0 mm 2 m/S 750 mmHg 90%

21 Juni, Montag

Zeit Temperatur Niederschläge Wind Luftdruck Luftfeuchtigkeit
00:00 +20°C° 0 mm 2 m/S 750 mmHg 92%
01:00 +19°C° 0 mm 2 m/S 750 mmHg 94%
02:00 +20°C° 0 mm 1 m/S 751 mmHg 96%
03:00 +20°C° 0 mm 1 m/S 751 mmHg 95%
04:00 +21°C° 0 mm 1 m/S 750 mmHg 93%
05:00 +21°C° 0 mm 1 m/S 750 mmHg 91%
06:00 +23°C° 0 mm 2 m/S 750 mmHg 83%
07:00 +25°C° 0 mm 2 m/S 750 mmHg 74%
08:00 +27°C° 0 mm 2 m/S 750 mmHg 65%
09:00 +28°C° 0 mm 3 m/S 750 mmHg 57%
10:00 +29°C° 0 mm 3 m/S 750 mmHg 50%
11:00 +31°C° 0 mm 3 m/S 750 mmHg 43%
12:00 +31°C° 0 mm 3 m/S 749 mmHg 41%
13:00 +33°C° 0 mm 3 m/S 749 mmHg 39%
14:00 +33°C° 0 mm 3 m/S 749 mmHg 37%
15:00 +33°C° 0 mm 3 m/S 749 mmHg 39%
16:00 +31°C° 0 mm 3 m/S 748 mmHg 42%
17:00 +31°C° 0 mm 3 m/S 748 mmHg 44%
18:00 +29°C° 0 mm 3 m/S 748 mmHg 53%
19:00 +27°C° 0 mm 2 m/S 748 mmHg 62%
20:00 +25°C° 0 mm 2 m/S 748 mmHg 71%
21:00 +24°C° 0 mm 2 m/S 748 mmHg 74%
22:00 +23°C° 0 mm 2 m/S 748 mmHg 76%
23:00 +21°C° 0 mm 2 m/S 748 mmHg 78%

22 Juni, Dienstag

Zeit Temperatur Niederschläge Wind Luftdruck Luftfeuchtigkeit
00:00 +21°C° 0 mm 2 m/S 748 mmHg 79%
01:00 +20°C° 0 mm 2 m/S 748 mmHg 80%
02:00 +20°C° 0 mm 3 m/S 748 mmHg 81%
03:00 +20°C° 0 mm 3 m/S 748 mmHg 83%
04:00 +21°C° 0 mm 3 m/S 748 mmHg 85%
05:00 +21°C° 0 mm 3 m/S 748 mmHg 88%
06:00 +22°C° 0 mm 3 m/S 748 mmHg 80%
07:00 +25°C° 0 mm 4 m/S 747 mmHg 73%
08:00 +27°C° 0 mm 4 m/S 747 mmHg 65%
09:00 +29°C° 0 mm 4 m/S 747 mmHg 58%
10:00 +30°C° 0 mm 5 m/S 747 mmHg 51%
11:00 +32°C° 0 mm 5 m/S 747 mmHg 45%
12:00 +33°C° 0 mm 5 m/S 747 mmHg 44%
13:00 +33°C° 0 mm 5 m/S 747 mmHg 44%
14:00 +33°C° 0 mm 5 m/S 747 mmHg 43%
15:00 +33°C° 0 mm 5 m/S 747 mmHg 46%
16:00 +32°C° 0 mm 4 m/S 747 mmHg 48%
17:00 +32°C° 0 mm 4 m/S 747 mmHg 50%
18:00 +30°C° 0 mm 3 m/S 747 mmHg 56%
19:00 +28°C° 0 mm 3 m/S 747 mmHg 62%
20:00 +27°C° 0 mm 2 m/S 747 mmHg 68%
21:00 +26°C° 0 mm 2 m/S 747 mmHg 73%
22:00 +24°C° 0 mm 2 m/S 748 mmHg 79%
23:00 +23°C° 0 mm 2 m/S 748 mmHg 84%

23 Juni, Mittwoch

Zeit Temperatur Niederschläge Wind Luftdruck Luftfeuchtigkeit
00:00 +23°C° 0 mm 2 m/S 748 mmHg 86%
01:00 +23°C° 0 mm 2 m/S 748 mmHg 88%
02:00 +21°C° 0 mm 2 m/S 748 mmHg 90%
03:00 +23°C° 0 mm 2 m/S 748 mmHg 90%
04:00 +22°C° 0 mm 3 m/S 748 mmHg 89%
05:00 +22°C° 0 mm 3 m/S 748 mmHg 88%
06:00 +25°C° 0 mm 3 m/S 748 mmHg 78%
07:00 +26°C° 0 mm 3 m/S 749 mmHg 67%
08:00 +28°C° 0 mm 4 m/S 749 mmHg 57%
09:00 +29°C° 0 mm 4 m/S 749 mmHg 51%
10:00 +32°C° 0 mm 5 m/S 748 mmHg 44%
11:00 +33°C° 0 mm 5 m/S 748 mmHg 38%
12:00 +34°C° 0 mm 5 m/S 748 mmHg 37%
13:00 +35°C° 0 mm 5 m/S 748 mmHg 36%
14:00 +35°C° 0 mm 6 m/S 748 mmHg 34%
15:00 +35°C° 0 mm 5 m/S 747 mmHg 37%
16:00 +35°C° 0 mm 5 m/S 747 mmHg 40%
17:00 +35°C° 0 mm 4 m/S 747 mmHg 42%
18:00 +33°C° 0 mm 4 m/S 747 mmHg 49%
19:00 +30°C° 0 mm 4 m/S 747 mmHg 56%
20:00 +29°C° 0 mm 4 m/S 747 mmHg 64%
21:00 +27°C° 0.1 mm 4 m/S 747 mmHg 69%
22:00 +26°C° 0.1 mm 4 m/S 747 mmHg 74%
23:00 +25°C° 0.1 mm 4 m/S 747 mmHg 79%
Mehr zeigen

Wir brauchen deine Erlaubnis

Meteoprog und unser Service Anbieter werden persönliche Daten aufbewahren, so wie Cookies, Geräte Bezeichnung oder ähnliche Technologien von deinem Gerät und Prozess, so wie Persönliche Daten Inhalte und Werbungen, genauso wie social Media und den Verkehr zu analysieren.

  • Aufbewahrung und/oder Zugang zu deiner Geräte Informationen.

    Cookies, Geräte Bezeichnung oder andere Informationen, können aufbewahrt oder Zugang zu deinem Gerät erhalten, für den Grund, der oben angegeben wird.

  • Personalisierte Werbung und Inhalte, Messungen, Einblick in das Publikum und Produkt Entwicklung.

    Werbungen und Inhalte können personalisiert werden, basierend auf ein Profil. Mehr Daten können besser personalisierte Werbungen und Inhalte hinzufügen. Werbung und Inhalte können gezeigt und gemessen werden. Einblicke über das Publikum, welche die Werbung gesehen haben und den Inhalt, können abgeleitet werden. So wie Daten können genutzt werden, um es zu verbessern oder die Benutzer Erfahrung zu verbessern das System und die Software.

Wenn du “Ich stimme zu” klickst, erlaubst du uns, die Cookies zu benutzen die Geräte Bezeichnung, den Web oder ähnliche Technologien zu benutzen. Deine Settings, können in deinem Gerät bei deinem Browser geändert werden.

Für den bestimmten Zweck, berechtigten Interessen beruhen darauf, mehr als auf den Inhalt. Du kannst mehr darüber in unseren Privaten und Cookie Politik lesen.